Weather History for Yakima, WA

Change the Weather History Date:

Sunday, January 5, 2014

  Actual Average Record
Temperature  
Mean Temperature 28 °F 29 °F  
Max Temperature 45 °F 36 °F 61 °F (2015)
Min Temperature 11 °F 22 °F -14 °F (2004)
Degree Days  
Heating Degree Days 37 36  
Month to date heating degree days 172 183  
Since 1 July heating degree days 2743 2846  
Cooling Degree Days 0 0  
Month to date cooling degree days 0 0  
Year to date cooling degree days 0 0  
Moisture  
Dew Point 14 °F    
Average Humidity 59    
Maximum Humidity 84    
Minimum Humidity 33    
Precipitation  
Precipitation 0.00 in 0.05 in 0.67 in (1966)
Month to date precipitation 0.00 0.22  
Year to date precipitation 0.00 0.22  
Snow  
Snow 0.00 in 0.20 in 3.40 in (1966)
Month to date snowfall 0.0 1.2  
Year to date snowfall 0.0 1.2  
Since 1 July snowfall T 14.2  
Snow Depth 0.00 in    
Sea Level Pressure  
Sea Level Pressure 30.59 in    
Wind  
Wind Speed 3 mph (West)    
Max Wind Speed 12 mph    
Max Gust Speed 13 mph    
Visibility 10 miles    
Events      
T = Trace of Precipitation, MM = Missing Value Source: NWS Daily Summary

Daily Weather History Graph

Daily Weather History Graph

Search for Another Location

Airport:

Trip Planner

Search our weather history database for the weather conditions in past years. The results will help you decide how hot, cold, wet, or windy it might be!

Date:

Astronomy

Jan. 05, 2014 Rise Set
Actual Time 7:45 AM PST 4:29 PM PST
Civil Twilight 7:11 AM PST 5:04 PM PST
Nautical Twilight 6:33 AM PST 5:42 PM PST
Astronomical Twilight 5:56 AM PST 6:18 PM PST
Moon 10:11 AM PST (1/5) 10:24 PM PST (1/5)
Length of Visible Light 9h 53m
Length of Day
8h 43m
Waxing Crescent, 25% of the Moon is Illuminated
Jan 5
Waxing Crescent
Jan 7
First Quarter
Jan 15
Full
Jan 23
Last Quarter
Jan 30
New

Hourly Weather History & Observations

Time (PST) Temp. Windchill Dew Point Humidity Pressure Visibility Wind Dir Wind Speed Gust Speed Precip Events Conditions
12:53 AM 17.1 °F 10.0 °F 12.0 °F 81% 30.48 in 9.0 mi NW 4.6 mph - N/A   Clear
1:53 AM 16.0 °F 7.4 °F 10.0 °F 77% 30.51 in 10.0 mi West 5.8 mph - N/A   Clear
2:53 AM 18.0 °F 8.7 °F 12.9 °F 81% 30.53 in 10.0 mi West 6.9 mph - N/A   Clear
3:53 AM 18.0 °F 11.1 °F 12.0 °F 78% 30.54 in 10.0 mi West 4.6 mph - N/A   Clear
4:53 AM 15.1 °F 7.7 °F 10.0 °F 80% 30.57 in 10.0 mi SSW 4.6 mph - N/A   Clear
5:53 AM 15.1 °F - 9.0 °F 77% 30.58 in 10.0 mi Calm Calm - N/A   Clear
6:53 AM 12.0 °F - 8.1 °F 84% 30.61 in 10.0 mi Calm Calm - N/A   Clear
7:53 AM 12.0 °F 4.1 °F 8.1 °F 84% 30.63 in 10.0 mi WNW 4.6 mph - N/A   Clear
8:53 AM 19.0 °F 13.9 °F 12.9 °F 77% 30.66 in 10.0 mi West 3.5 mph - N/A   Clear
9:53 AM 27.0 °F - 18.0 °F 69% 30.66 in 10.0 mi Calm Calm - N/A   Clear
10:53 AM 33.1 °F - 19.9 °F 59% 30.65 in 10.0 mi Calm Calm - N/A   Clear
11:53 AM 36.0 °F - 19.9 °F 52% 30.63 in 10.0 mi Calm Calm - N/A   Clear
12:53 PM 41.0 °F - 19.0 °F 41% 30.59 in 10.0 mi Calm Calm - N/A   Clear
1:53 PM 43.0 °F - 17.1 °F 35% 30.59 in 10.0 mi Calm Calm - N/A   Clear
2:53 PM 44.1 °F - 17.1 °F 34% 30.59 in 10.0 mi Calm Calm - N/A   Clear
3:53 PM 39.9 °F 37.8 °F 17.1 °F 40% 30.59 in 10.0 mi SE 3.5 mph - N/A   Clear
4:53 PM 34.0 °F - 17.1 °F 50% 30.58 in 10.0 mi Calm Calm - N/A   Clear
5:53 PM 25.0 °F 19.3 °F 14.0 °F 63% 30.59 in 10.0 mi WNW 4.6 mph - N/A   Clear
6:53 PM 23.0 °F 18.4 °F 14.0 °F 68% 30.60 in 10.0 mi WNW 3.5 mph - N/A   Clear
7:53 PM 19.9 °F 11.1 °F 12.0 °F 71% 30.60 in 9.0 mi West 6.9 mph - N/A   Clear
8:53 PM 19.0 °F 11.1 °F 12.0 °F 74% 30.59 in 10.0 mi West 5.8 mph - N/A   Clear
9:53 PM 18.0 °F 9.8 °F 10.9 °F 74% 30.58 in 10.0 mi West 5.8 mph - N/A   Clear
10:53 PM 17.1 °F 7.6 °F 10.9 °F 77% 30.56 in 8.0 mi WNW 6.9 mph - N/A   Clear
11:53 PM 18.0 °F 7.7 °F 12.0 °F 78% 30.53 in 10.0 mi WNW 8.1 mph - N/A   Clear